This is the latest recevied weather packets stored in our database for station/object KF0EZB. If no packets are shown the sender has not sent any weather packets the latest 10 day(s).
| Time | Temp. | Humidity | Pressure | Rain* | Wind** | Luminosity | Snow |
|---|---|---|---|---|---|---|---|
| 1777859082 | 22.78° C | 29% | 1005.5 hPa | 0 mm | - | 0 W/m² | - |
| 1777858778 | 22.78° C | 29% | 1005.4 hPa | 0 mm | - | 0 W/m² | - |
| 1777858477 | 23.33° C | 29% | 1005.3 hPa | 0 mm | - | 0 W/m² | - |
| 1777858173 | 23.33° C | 28% | 1005.3 hPa | 0 mm | - | 2 W/m² | - |
| 1777857871 | 23.89° C | 27% | 1005.5 hPa | 0 mm | - | 3 W/m² | - |
| 1777857568 | 24.44° C | 26% | 1005.5 hPa | 0 mm | - | 7 W/m² | - |
| 1777857265 | 25° C | 25% | 1005.6 hPa | 0 mm | - | 12 W/m² | - |
| 1777856961 | 25.56° C | 24% | 1005.5 hPa | 0 mm | - | 17 W/m² | - |
| 1777856657 | 25.56° C | 24% | 1005.3 hPa | 0 mm | - | 23 W/m² | - |
| 1777856353 | 26.11° C | 23% | 1005.8 hPa | 0 mm | - | 31 W/m² | - |
| 1777856050 | 26.67° C | 23% | 1005.5 hPa | 0 mm | - | 32 W/m² | - |
| 1777855748 | 26.67° C | 22% | 1005.6 hPa | 0 mm | - | 34 W/m² | - |
| 1777855445 | 26.67° C | 22% | 1005.7 hPa | 0 mm | - | 41 W/m² | - |
| 1777855142 | 27.22° C | 21% | 1005.6 hPa | 0 mm | - | 42 W/m² | - |
| 1777854838 | 27.22° C | 21% | 1005.7 hPa | 0 mm | - | 42 W/m² | - |
| 1777854535 | 27.22° C | 22% | 1005.7 hPa | 0 mm | - | 44 W/m² | - |
| 1777854232 | 27.22° C | 22% | 1005.6 hPa | 0 mm | - | 52 W/m² | - |
| 1777853929 | 27.22° C | 22% | 1005.8 hPa | 0 mm | - | 58 W/m² | - |
| 1777853627 | 27.22° C | 21% | 1006 hPa | 0 mm | - | 63 W/m² | - |
| 1777853323 | 27.22° C | 20% | 1005.8 hPa | 0 mm | - | 73 W/m² | - |
| 1777853020 | 27.78° C | 21% | 1006.1 hPa | 0 mm | - | 82 W/m² | - |
| 1777852718 | 27.78° C | 20% | 1006.1 hPa | 0 mm | - | 95 W/m² | - |
| 1777852415 | 27.78° C | 20% | 1006.2 hPa | 0 mm | - | 101 W/m² | - |
| 1777852113 | 27.78° C | 19% | 1006.2 hPa | 0 mm | - | 85 W/m² | - |
| 1777851810 | 28.33° C | 19% | 1006.3 hPa | 0 mm | - | 67 W/m² | - |
* Rain latest hour (hover to see other rain measurements)
** Current wind speed in m/s (hover to see current wind gust speed)